Tracking 29892 objects as of 21-Nov-2024
HD Live streaming from Space Station
objects crossing your sky now

THORAD DELTA 1 DEB

Track THORAD DELTA 1 DEB now!
10-day predictions


NORAD ID: 9695
Int'l Code: 1974-089DU
Perigee: 865.2 km
Apogee: 1,287.6 km
Inclination: 103.0 °
Period: 106.6 minutes
Semi major axis: 7447 km
RCS: 0.0348 m2 (small)
Launch date: November 15, 1974
Source: United States (US)
Launch site: AIR FORCE WESTERN TEST RANGE (AFWTR)

Note: This is SATELLITE DEBRIS
Your satellite tracking list
Your tracking list is empty




NASA's NSSDC Master Catalog

Two Line Element Set (TLE):
1 09695U 74089DU  24325.20574595  .00001944  00000-0  24275-2 0  9990
2 09695 103.0071 155.0815 0283600 104.8184 258.4534 13.50818283362778
Source of the keplerian elements: AFSPC